Helicity
36 -6 22 30 67 73 35 53 75 84 48 10 90 28 60 26 36 61 -0 -15 13 2 -9 3 28 27 16 13 12 16 4 13 6 6 7 13 21 18 7 19 3 -8 -11 -18 -9 -6 -14 -5 -13
29 15 9 41 79 31 39 27 52 30 74 143 106 98 30 22 -5 99 10 -26 6 -1 -6 6 31 34 29 23 14 9 4 11 13 10 9 12 19 23 15 15 13 9 -6 -29 -24 -18 -23 -22 11
64 16 32 85 86 36 44 54 92 74 78 64 99 56 22 1 54 43 -36 -16 3 -12 -5 14 34 35 31 23 13 3 3 -1 -2 12 5 5 6 15 13 -5 -9 -24 16 -21 5 -12 -9 -6 -13
86 17 22 29 18 36 37 84 108 115 58 56 50 69 39 -9 -1 -30 -16 -15 9 -10 -3 19 33 35 34 26 18 12 5 3 3 -1 9 8 -0 3 7 -3 -14 -25 5 10 -2 -6 -10 -16 -9
52 16 23 37 28 31 23 40 59 69 73 36 38 34 20 -37 -24 7 -27 -12 18 -11 -5 7 29 27 27 22 19 17 16 10 3 -3 -6 -5 -0 -3 3 1 -6 -14 11 17 17 -25 -21 -16 -5
28 22 43 40 34 41 49 66 73 77 54 61 79 43 8 -35 15 -27 -35 -24 -8 -1 -2 9 29 33 26 22 13 3 1 -0 5 -2 -1 -4 -6 1 -5 10 12 10 7 11 2 -17 -6 -11 17
35 25 84 48 64 24 62 81 62 73 55 16 48 17 1 -20 -46 -42 -45 -29 -20 -14 -5 1 5 19 31 26 19 9 -4 -3 2 -5 -2 -1 1 4 8 -1 6 4 10 7 -3 -2 7 16 32
11 -0 43 29 68 63 91 79 86 91 43 62 49 44 -0 -40 -50 -48 -45 -31 -15 -14 -9 -5 -3 -0 12 13 19 12 -0 -8 -4 -4 -1 7 2 -1 -1 -1 4 -3 2 -7 -2 -4 1 -0 12
6 20 24 49 79 88 145 112 96 73 165 45 15 39 12 13 -0 -8 -27 -37 -35 -14 -19 -9 -0 3 16 9 13 19 -0 -13 -9 -4 -4 -8 -2 11 6 -4 12 2 -1 1 1 -4 -7 -10 -5
4 19 42 69 109 127 141 154 87 92 119 48 74 123 127 40 2 5 -3 1 -6 -6 -30 -20 -3 6 14 -3 8 -2 15 -10 -26 -17 -13 -11 -9 -3 -2 -0 10 6 2 -2 -3 -6 -5 -2 -17
-6 50 33 35 91 136 132 117 64 173 117 69 149 181 115 53 -4 11 15 23 39 8 -22 -27 -31 -5 15 -1 -16 -13 -4 3 -4 -18 -18 -16 -11 -15 -12 -10 -11 -14 -2 -13 -6 -7 -23 -18 -24
38 71 25 44 138 143 140 81 82 69 71 94 146 219 101 75 36 28 6 -18 21 24 21 -20 -17 4 17 11 -5 -11 -12 11 28 8 -8 -27 -20 -14 -2 -9 -11 -15 -17 -13 -12 -10 -8 -13 -15
172 23 41 47 142 124 51 56 90 61 95 96 154 180 152 101 39 -9 20 16 11 -18 -26 23 11 9 17 24 -0 -12 -30 -12 15 14 9 2 -3 -5 -6 -9 -5 -11 -15 -12 -14 -11 -7 -4 -6
101 128 70 94 125 92 123 57 81 93 161 177 127 101 171 146 124 55 19 35 47 32 -4 -27 19 25 25 22 9 -5 -13 -8 19 17 14 13 -0 -8 -10 -8 -7 -10 -11 -5 -4 -6 -6 -6 -16
179 135 70 53 114 124 200 59 73 108 233 189 140 227 233 190 188 142 124 61 15 -9 43 27 -14 7 64 57 43 27 4 12 39 24 6 17 14 12 6 -7 -5 -9 -7 15 14 5 -2 1 -7
66 54 79 86 102 112 104 111 134 132 293 230 135 197 275 254 196 194 181 114 52 50 1 42 41 13 34 54 35 21 5 27 37 5 -9 37 35 28 21 5 4 -14 -19 -3 6 5 2 12 22
35 33 70 91 92 102 132 114 159 202 243 311 192 223 178 210 175 142 145 130 136 85 66 63 83 24 -26 37 15 8 8 29 39 14 15 26 31 12 20 8 1 -7 3 11 8 9 10 9 7
41 63 53 23 69 109 134 129 197 251 275 291 264 242 181 251 194 94 68 24 82 59 66 58 86 78 61 54 -6 -18 -5 6 6 11 16 22 21 14 9 4 8 4 2 -0 -3 -6 -4 3 -8
33 -13 -9 -0 42 89 104 113 182 232 259 278 286 244 224 174 180 141 97 59 32 24 46 25 62 136 59 45 -7 -25 -18 -18 -7 -6 13 14 20 13 -2 -2 -3 -5 8 -7 -25 -28 -23 -15 -19
27 -24 -10 -23 15 51 76 97 122 249 255 310 297 256 242 166 163 139 73 76 45 31 8 44 38 44 -11 27 43 37 -15 -16 1 -9 -5 -6 -8 -6 -14 -4 -0 -8 -9 -3 -15 -24 -24 -19 29
31 -2 -1 -3 -2 59 9 33 114 149 118 190 178 198 189 190 161 151 83 61 46 20 34 16 11 23 25 6 49 38 24 4 4 -6 -16 1 11 24 2 18 10 10 -0 3 19 38 20 -29 38
87 -4 -8 -18 2 -30 -16 20 8 122 130 122 147 133 133 146 85 82 82 46 49 7 -7 7 25 30 4 -14 2 8 -8 4 2 14 33 54 63 51 31 15 8 11 27 20 27 36 43 55 43
6 -3 15 23 24 11 10 43 -34 56 200 174 172 152 143 36 33 44 54 41 39 9 -50 -15 1 -10 -11 -8 -7 -7 -13 -26 7 27 23 33 40 36 37 25 43 49 30 18 11 29 28 51 51
46 45 23 2 14 15 24 61 -16 70 130 100 86 48 74 25 -63 -45 -1 24 -22 -31 -61 -39 -23 -13 3 26 32 10 -4 7 39 44 38 48 81 102 86 91 76 79 73 54 44 39 54 49 42
99 88 71 70 54 38 24 58 28 20 38 50 54 50 54 22 -25 -67 5 4 -9 -27 -47 -34 -5 16 24 18 14 4 -11 61 40 53 56 58 62 78 87 57 63 46 49 34 43 58 94 88 80
77 59 61 101 30 11 55 5 -11 -40 52 33 -16 -10 -17 11 -19 -39 -18 -10 -7 -14 -39 -55 -14 74 51 -0 -3 36 77 85 90 96 87 69 53 42 18 13 -28 25 37 44 65 88 101 107 105
48 37 26 114 58 71 35 27 32 26 101 52 26 10 -36 -10 -8 -6 -33 8 5 -1 -22 -14 -48 26 -49 -28 39 93 133 128 128 132 111 73 53 27 24 13 21 33 31 38 54 73 97 105 108
64 46 76 76 67 56 53 26 -2 79 116 106 93 43 -19 -1 36 2 8 -4 13 17 30 65 121 53 -48 40 89 115 131 141 136 122 100 68 45 34 28 33 40 47 51 52 55 61 72 81 87
86 78 103 76 82 22 85 45 47 110 148 261 117 45 4 -14 38 24 36 24 25 61 62 36 175 133 39 73 99 126 125 128 128 113 78 53 40 41 47 50 49 48 45 49 49 49 58 60 61
60 45 77 95 42 105 72 59 36 26 138 268 174 71 16 15 29 51 67 66 78 76 50 48 79 77 87 82 96 101 106 113 106 83 67 51 44 42 43 44 48 46 39 41 50 54 55 58 60
Wind_Speed
47 45 37 29 41 45 42 39 37 43 39 33 44 31 33 29 31 30 49 53 56 55 54 53 52 52 51 49 49 46 49 46 49 54 55 56 56 58 61 55 10 30 41 55 60 61 59 61 52
45 37 28 33 52 55 41 36 45 39 45 51 43 36 31 29 28 41 53 56 56 55 54 54 53 52 50 49 48 48 49 47 44 51 52 51 52 53 56 52 12 3 8 42 61 65 56 61 33
40 32 31 44 49 52 49 43 52 53 43 36 35 36 31 29 42 52 52 56 54 52 53 54 53 52 50 49 48 48 47 47 48 50 50 51 50 51 53 54 57 50 13 17 60 62 61 61 60
36 37 40 51 53 44 44 49 49 47 49 48 46 46 43 40 54 49 54 56 51 49 52 52 52 51 50 48 48 46 46 46 45 48 48 49 50 49 50 50 51 53 55 53 60 59 58 56 58
36 41 49 51 50 45 45 45 45 47 46 45 42 43 47 45 44 50 53 55 51 49 52 50 50 49 47 46 46 45 44 45 45 45 47 46 48 47 47 49 39 49 46 44 38 51 52 51 8
44 40 48 52 50 48 45 43 44 50 48 47 47 44 42 41 46 52 52 51 47 49 50 49 48 47 46 45 44 42 42 41 44 44 43 44 45 45 45 43 42 37 40 44 47 45 49 40 36
41 45 45 48 48 44 42 40 42 49 49 46 46 42 39 42 44 46 48 44 43 47 48 48 46 45 44 42 41 41 40 38 39 41 39 43 42 44 44 45 43 44 41 44 43 42 37 29 29
37 42 45 46 45 43 40 41 43 49 48 47 45 36 40 46 43 37 41 41 39 46 48 46 45 42 41 40 39 39 39 38 37 38 39 38 39 41 40 41 44 43 43 43 42 41 39 39 38
36 41 42 44 44 44 42 43 41 42 47 41 35 41 44 47 39 36 39 41 40 44 47 46 44 41 39 39 37 37 38 39 39 39 39 38 37 36 37 39 39 41 42 42 41 41 40 39 39
31 38 38 37 39 42 41 41 42 43 42 46 43 44 46 46 48 46 45 44 44 45 46 45 44 41 39 39 36 34 36 38 39 39 38 38 38 38 37 38 39 39 39 40 40 40 39 39 38
31 34 38 40 33 42 44 43 41 45 41 40 46 46 46 45 45 43 42 44 44 44 46 45 43 39 39 37 36 34 33 36 37 40 39 38 38 38 38 38 38 38 39 39 39 40 39 41 40
33 33 38 41 44 44 44 44 41 39 37 45 49 50 44 39 40 42 40 41 43 43 45 44 44 39 38 36 35 34 35 35 36 40 39 37 38 37 39 38 38 39 39 39 40 39 39 41 41
32 29 41 43 45 45 43 42 42 40 44 48 50 50 40 34 30 27 35 28 45 47 47 47 44 41 37 36 35 33 35 36 36 39 39 37 37 37 35 36 37 38 39 38 40 39 38 39 39
25 34 39 44 47 44 42 42 42 41 43 45 44 39 38 33 27 21 23 36 44 43 47 48 46 41 35 34 34 33 33 37 36 39 39 35 36 38 38 37 34 33 37 40 40 39 38 37 39
26 34 35 9 35 40 42 37 38 39 40 41 40 36 36 35 30 20 37 36 42 43 42 43 47 41 34 31 33 31 33 37 38 38 39 33 31 36 37 34 32 26 24 40 38 39 39 38 38
22 30 30 24 27 32 33 35 34 33 35 36 34 35 33 34 34 42 45 32 21 7 25 37 36 50 36 33 31 33 32 36 39 34 35 36 36 36 38 34 30 25 23 36 28 30 34 37 36
24 27 19 26 22 28 25 31 27 31 30 30 30 30 30 31 32 35 35 24 13 18 15 5 10 47 47 33 33 34 35 40 39 37 37 37 30 21 40 37 31 27 37 39 34 26 23 40 38
22 24 24 27 24 23 24 20 24 24 25 24 27 28 28 27 28 30 29 25 15 22 25 24 1 21 28 13 33 39 38 39 38 35 36 31 39 40 40 39 36 32 38 41 37 29 24 34 38
30 29 28 4 21 22 19 25 17 23 22 21 23 24 27 24 25 24 25 26 24 20 11 0 29 7 31 45 39 35 42 40 38 38 35 38 41 40 41 40 38 35 37 38 40 36 34 32 29
34 36 42 39 34 26 34 14 14 19 22 23 25 24 24 26 19 19 23 27 30 35 28 40 59 54 50 52 37 27 21 38 36 38 34 32 37 40 41 42 43 41 42 39 42 37 42 32 17
42 33 33 44 47 37 41 42 30 15 16 24 24 23 22 26 25 18 23 29 26 34 36 51 56 58 55 55 35 26 30 37 42 33 25 7 36 41 50 49 50 48 50 50 43 28 12 44 37
39 29 30 17 45 43 41 36 48 23 16 22 24 21 20 25 27 21 27 37 36 34 36 49 53 55 55 55 49 48 44 43 43 39 41 36 32 34 36 36 38 38 44 44 40 43 33 31 38
33 29 41 44 38 44 38 38 41 8 16 23 22 18 20 26 28 27 33 37 39 34 35 46 49 53 51 49 46 47 45 42 44 37 39 34 31 33 39 40 40 36 41 42 47 40 44 30 34
34 44 41 35 38 50 41 30 45 13 11 20 20 22 26 28 30 31 33 36 37 30 32 43 46 49 46 48 35 15 42 37 34 33 35 36 31 33 35 34 34 35 40 41 43 43 38 37 37
36 41 46 43 40 27 46 31 27 31 21 22 26 23 24 28 32 36 36 35 33 32 34 40 42 39 28 15 17 31 40 18 13 29 33 35 33 37 39 37 37 41 44 46 47 46 41 42 39
33 29 35 47 41 48 37 34 43 42 15 25 21 21 22 25 30 32 34 34 32 30 28 34 38 22 13 42 30 19 20 24 31 33 34 36 33 30 32 37 38 43 48 51 51 48 45 44 43
28 26 24 34 40 47 43 41 42 43 22 21 21 22 24 29 30 31 32 29 30 27 26 12 22 15 37 32 23 22 25 28 31 35 37 39 41 41 44 44 47 49 51 51 49 47 47 45 45
24 18 29 33 46 51 41 34 35 24 17 14 18 21 34 30 29 30 29 30 28 27 20 19 30 40 37 25 23 25 26 28 31 35 40 42 41 43 44 44 45 45 46 45 44 44 45 44 44
28 30 29 27 32 48 52 46 29 14 23 15 20 27 30 29 29 28 28 27 29 26 29 32 22 29 28 25 23 25 27 29 32 36 40 42 43 43 42 42 42 41 42 43 44 45 47 46 46
26 26 26 37 39 41 45 60 44 38 8 15 20 24 27 28 28 28 26 27 26 30 32 29 21 26 24 24 23 26 28 31 34 37 39 41 42 42 42 41 36 38 41 44 48 50 49 48 47
Wind_Direction
116 111 119 130 100 96 97 101 110 100 105 130 119 136 121 155 139 150 131 124 113 113 120 124 116 120 122 119 121 127 119 131 125 113 117 119 121 116 95 121 166 37 50 77 90 88 83 87 73
115 125 134 116 79 69 88 99 81 100 96 85 91 88 125 153 181 83 110 120 112 111 115 119 119 120 124 123 124 121 118 127 138 123 120 129 128 125 116 118 178 156 47 67 87 102 82 92 130
116 124 116 81 72 66 72 85 75 82 86 100 91 90 113 149 92 106 124 114 109 106 111 116 119 118 123 123 121 119 125 124 126 123 123 118 125 123 117 94 98 86 173 69 121 105 107 104 101
116 107 90 60 59 75 82 83 83 75 64 71 77 77 89 94 105 113 110 114 106 105 116 117 121 121 121 122 118 124 122 123 137 121 129 126 120 132 128 92 91 92 127 134 115 108 96 93 99
104 80 52 52 56 68 70 81 77 65 62 62 77 74 80 95 96 105 112 116 110 108 121 123 124 127 126 124 125 122 131 124 128 133 127 129 122 130 133 130 102 98 154 157 166 92 95 98 85
53 73 52 49 51 68 77 78 70 55 59 59 60 62 85 93 101 112 115 115 110 112 120 124 128 130 128 126 128 133 135 142 131 140 153 142 138 144 142 157 167 181 177 163 143 89 116 77 173
59 52 59 51 49 63 77 87 69 59 62 60 76 62 83 98 105 107 111 105 107 117 127 138 135 134 130 129 128 131 141 153 159 158 174 157 158 147 146 145 161 164 178 164 121 122 178 212 208
69 51 58 48 56 62 87 77 85 65 58 77 82 80 97 116 106 96 103 104 105 126 142 144 152 141 134 128 131 131 137 155 166 166 168 179 173 166 170 166 158 166 165 154 158 173 184 175 176
69 46 57 55 61 66 89 72 91 75 78 68 75 88 97 103 98 96 105 114 118 134 151 156 149 145 132 129 130 132 155 157 164 166 163 167 177 190 185 179 183 173 165 166 165 161 163 168 173
56 48 66 74 82 79 84 71 70 61 70 54 55 80 99 107 115 116 121 126 136 143 149 149 148 144 138 135 142 145 158 163 161 175 179 177 176 174 177 177 176 181 186 184 185 181 173 173 175
58 62 69 65 106 81 75 66 75 71 74 81 86 104 111 117 126 126 126 133 135 141 151 152 150 144 147 140 135 156 192 175 162 168 174 179 180 179 180 179 184 192 192 195 205 207 194 207 199
51 46 49 69 74 77 78 77 80 88 96 102 92 105 115 121 130 137 137 141 142 146 153 159 158 147 151 148 148 149 185 175 172 171 170 167 176 175 174 179 178 185 189 194 198 205 208 210 203
57 31 74 78 74 81 85 74 80 81 82 96 95 96 107 112 119 125 140 121 163 175 180 168 158 160 152 153 161 152 177 184 181 172 166 156 164 177 165 173 178 179 184 183 192 192 196 204 207
44 52 79 76 78 86 77 76 69 85 83 92 98 100 116 125 125 116 127 144 162 162 180 186 172 163 145 153 163 173 161 188 177 180 182 162 184 179 190 169 163 166 193 207 197 197 197 203 215
56 59 60 132 99 74 74 69 63 88 82 97 109 108 110 118 126 138 152 157 167 172 174 170 183 167 145 145 158 166 173 187 195 198 206 153 142 166 170 150 151 130 126 225 191 206 216 216 217
28 42 54 89 95 80 74 63 73 99 90 103 122 121 115 112 140 155 165 150 145 244 170 164 163 195 160 153 157 165 165 165 214 235 235 171 166 157 184 161 143 113 109 260 129 156 197 219 213
25 24 62 52 130 83 93 69 107 111 110 110 131 127 127 129 132 143 149 128 342 301 299 338 121 184 190 148 158 161 153 164 213 231 225 212 145 75 230 192 160 138 204 211 188 138 135 258 235
34 35 44 45 105 103 63 80 90 119 126 135 143 141 141 131 142 148 150 135 56 302 277 278 47 134 275 28 196 172 167 175 185 179 185 210 199 208 217 219 202 190 211 217 208 179 163 211 226
30 29 50 127 66 53 64 43 87 135 142 150 162 160 167 153 154 152 144 140 131 308 318 338 262 28 138 233 169 154 178 181 190 203 196 204 213 217 218 215 208 199 201 206 218 205 212 205 195
1 349 328 3 25 37 17 67 118 137 160 167 173 172 172 169 127 134 147 147 155 155 139 157 214 228 181 215 258 294 183 191 195 211 195 193 208 213 219 223 228 220 222 211 226 209 235 218 88
333 350 11 312 338 354 348 352 36 90 152 175 176 180 173 178 173 135 137 147 120 145 150 180 197 200 204 206 263 302 298 282 266 204 187 215 287 301 270 283 276 288 275 271 295 326 126 235 329
321 9 16 273 320 333 347 5 344 65 133 166 175 171 175 170 167 148 140 155 139 132 145 178 192 195 202 202 183 213 220 225 280 310 322 330 334 331 320 316 311 314 307 300 308 301 320 336 329
339 2 346 333 314 324 354 359 345 118 139 168 166 181 169 156 152 150 144 147 142 117 132 164 183 179 190 186 174 208 225 228 291 330 328 348 352 330 319 320 309 319 314 301 300 306 297 338 334
338 325 334 342 318 300 338 10 321 187 160 94 99 140 128 132 138 132 122 115 118 100 95 133 149 162 164 178 155 151 228 214 338 350 349 349 355 347 334 332 334 329 314 312 310 318 328 328 331
329 328 298 304 319 351 322 355 211 251 235 88 77 93 109 114 123 133 123 115 105 103 104 131 141 138 116 74 349 186 211 40 99 4 355 349 352 339 332 327 322 319 312 306 317 323 328 326 331
324 338 312 298 319 322 346 344 325 279 166 113 107 103 103 110 120 128 123 122 117 111 107 126 146 99 60 174 150 104 19 11 0 4 360 349 359 10 11 307 310 318 311 307 312 318 323 324 325
324 339 340 317 314 316 329 326 329 310 69 80 66 81 123 135 127 125 122 115 118 114 113 27 330 329 152 139 87 41 15 11 8 358 355 343 332 333 321 312 308 313 316 317 319 323 322 325 324
312 339 326 319 303 305 321 330 331 0 164 93 66 109 147 133 125 124 125 127 121 123 109 94 106 168 159 90 55 31 27 23 15 2 347 339 337 329 323 323 322 325 328 331 335 334 331 332 333
296 306 319 325 321 306 303 308 333 5 171 123 125 136 128 113 113 116 117 122 133 127 131 134 108 109 101 83 56 44 36 30 19 4 351 341 334 330 332 331 332 339 339 339 339 338 335 335 334
297 304 313 310 310 305 303 290 310 324 104 136 135 132 124 107 94 101 100 111 117 127 134 132 97 106 87 83 56 52 45 30 18 6 357 348 341 338 335 336 349 349 347 343 339 335 335 336 335